Cosmos 1441 Rocket - Orbit

View from above orbital plane
View from above orbital plane
View from above satellite
View from above satellite

Ground track
Ground track

The orbit data is extracted from the following two-line orbital elements,

1 13819U 83010B   13138.84304457  .00002616  00000-0  16460-3 0  5750
2 13819 081.1057 092.6578 0035008 221.9487 137.9055 15.08368617648465
Epoch (UTC): 18 May 2013 20:13:59
Eccentricity: 0.0035008
inclination: 81.1057°
perigee height: 517 km
apogee height: 565 km
right ascension of ascending node: 92.6578°
argument of perigee: 221.9487°
revolutions per day: 15.08368617
mean anomaly at epoch: 137.9055°
orbit number at epoch: 64846

The dashed part of the orbit path shows where the satellite is in the earth's shadow,  

Developed and maintained by Chris Peat, Heavens-Above GmbH. Please read the updated FAQ before sending e-mail. Imprint. DLR